CZ-6A DEB, 61308

Orbit data source: Space-Track

CZ-6A DEB, 61308 is space debris in LEO originally from a launch on Tue, 06 Aug 2024 UTC launched from the Taiyaun Space Center, China (TSC). Debris objects in space refer to the collection of defunct objects orbiting the Earth. Examples of debris include non-operational satellites, rocket bodies, and fragments generated from explosions, collisions, or faulty payload assembly.

Loading next visibility...
Identifier
61308, 2024-140TV
Orbit
LEO
Country
Flag of CNCN / PRC
Related business
Manufacturer
SAST
Mission
Spacecraft
Bus & Motor
Unknown
Mass
Unknown
Launch date (UTC)
2024-08-06 (2 years ago)
Launch vehicle
Unknown
Launch site
Taiyaun Space Center, China (TSC)
Object type
Payload
Rocket body
Debris
Shape & HBR
Unknown shape, 0.1 m
Radar Cross Section
Small (<0.1 m²)

Expand to show TLE details & history
Last TLE update: 14 hours ago

TLE from 14 hours ago
0 CZ-6A DEB
1 61308U 24140TV  26171.28111531  .00001818  00000-0  31537-3 0  9998
2 61308  88.8991 260.3255 0127000 230.7623 128.2266 14.62616262 96489
Epoch: 2026-06-20T06:44Z
TLE epoch observation values (Epoch: 2026-06-20T06:44:48.362Z)
Latitude
-0.00001°
Longitude
-109.374°
Altitude
744.062 km
Speed
7.453 km/s
True Right ascension
17h 21m 18s
True Declination
0° 00' 00"
Sunlit
Object was in full shadow at epoch
Visualization orbit readout
Latitude
Unknown
Longitude
Unknown
Altitude
Unknown
Speed
Unknown
Apparent Right ascension
Unknown
Apparent Declination
Unknown
Sunlit
N/A
Visualization observer readout
Local Sidereal Time
07:22:40
Azimuth
Unknown
Elevation
Unknown
Doppler factor
Unknown
Orbital elements
Apogee altitude
771.288 km
Perigee altitude
591.97 km
Semi-major axis
7,059.766 km
Eccentricity
0.0127
Inclination
88.8991°
RAAN
260.3255°
Arg. of periapsis
230.7623°
True anomaly
129.35865°
Mean anomaly
128.2266°
Eccentric anomaly
128.79374°
Mean motion
3.65896 °/min
Orbital period
98.39 mins
BSTAR
0.00031537
Loading maneuver chart data...
Computing Atmospheric mass density...
Loading historical data...
Loading historical data...
Loading historical data...
Loading historical data...
Loading historical data...
Loading historical data...
Loading historical data...

Documentation

Showing up to 5 results
|